Location: Feura Bush
(42.5779°N, 73.8787°W)
Time: 06:09:36
(UTC+00:00)

UNISAT 6 - Pass Details

Date: 08 December 2024
Orbit: 584 x 653 km, 97.7° (Epoch: 18 January)

Event Time Altitude Azimuth Distance (km) Brightness Sun altitude
Rises 22:13:30 0° 0° (N) 2,824 ? -9.3°
Reaches altitude 10° 22:15:54 10° 348° (NNW) 1,923 ? -9.7°
Maximum altitude 22:19:22 26° 292° (WNW) 1,179 ? -10.3°
Drops below altitude 10° 22:22:52 10° 235° (SW) 1,934 ? -10.9°
Sets 22:25:18 0° 223° (SW) 2,843 ? -11.3°
